Location: Holyhead Bay
(53.3667°N, 4.6667°W)
Time: 19:03:00
(UTC+00:00)

Cosmos 1408 Rocket - Visible Passes

Search period start: 12 April 2021 00:00
Search period end: 22 April 2021 00:00
Orbit: 600 x 632 km, 82.6° (Epoch: 12 April)

Date Brightness Start Highest point End Pass type
(mag) Time Alt. Az. Time Alt. Az. Time Alt. Az.
12 Apr 4.8 22:01:02 10° N 22:04:41 26° ENE 22:04:51 26° ENE visible
12 Apr 4.6 23:38:35 10° NNW 23:41:57 39° WNW 23:41:57 39° WNW visible
13 Apr 4.2 22:17:06 10° N 22:21:12 41° ENE 22:21:13 41° ENE visible
13 Apr 5.2 23:55:14 10° NNW 23:58:19 25° WNW 23:58:19 25° WNW visible
14 Apr 5.8 20:57:40 10° NE 20:58:54 11° NE 21:00:09 10° ENE visible
14 Apr 3.5 22:33:18 10° N 22:37:35 67° ENE 22:37:35 67° ENE visible
15 Apr 5.7 00:12:11 10° NW 00:14:41 16° W 00:14:41 16° W visible
15 Apr 5.4 21:12:47 10° NNE 21:15:37 17° ENE 21:16:53 15° E visible
15 Apr 3.5 22:49:38 10° NNW 22:53:57 74° W 22:53:58 74° W visible
16 Apr 6.2 00:30:34 10° WNW 00:30:55 10° WNW 00:31:04 10° W visible
16 Apr 4.8 21:28:36 10° N 21:32:13 25° ENE 21:33:17 23° E visible
16 Apr 4.2 23:06:06 10° NNW 23:10:13 44° W 23:10:23 44° W visible
17 Apr 4.2 21:44:39 10° N 21:48:44 39° ENE 21:49:42 34° ESE visible
17 Apr 5.0 23:22:44 10° NNW 23:26:23 27° W 23:26:47 27° W visible
18 Apr 5.8 20:25:24 10° NE 20:26:26 11° NE 20:27:27 10° ENE visible
18 Apr 3.6 22:00:51 10° N 22:05:10 65° ENE 22:06:07 49° SE visible
18 Apr 5.6 23:39:40 10° NW 23:42:29 17° W 23:43:13 17° W visible
19 Apr 5.4 20:40:23 10° NNE 20:43:08 16° ENE 20:45:27 11° E visible
19 Apr 3.5 22:17:11 10° NNW 22:21:30 77° W 22:22:33 50° S visible
19 Apr 6.1 23:57:34 10° WNW 23:58:30 11° W 23:59:25 10° W visible
20 Apr 4.9 20:56:10 10° N 20:59:45 24° ENE 21:01:55 17° ESE visible
20 Apr 4.3 22:33:37 10° NNW 22:37:46 46° W 22:39:01 35° SW visible
21 Apr 4.2 21:12:12 10° N 21:16:16 38° ENE 21:18:22 23° ESE visible
21 Apr 5.1 22:50:14 10° NNW 22:53:57 28° W 22:55:29 23° WSW visible
